Location: Batang Balui
(2.7000°N, 113.7833°E)
Time: 23:23:22
(UTC+00:00)

Cosmos 990 Rocket - Pass Details

Date: 03 December 2021
Orbit: 748 x 767 km, 74.0° (Epoch: 27 January)

Event Time Altitude Azimuth Distance (km) Brightness Sun altitude
Rises 10:49:27 0° 343° (NNW) 3,185 7.2 -9.1°
Reaches altitude 10° 10:51:49 10° 341° (NNW) 2,260 6.4 -9.6°
Maximum altitude 10:56:54 69° 258° (WSW) 796 4.3 -10.8°
Drops below altitude 10° 11:02:00 10° 175° (S) 2,262 6.7 -12.0°
Sets 11:04:22 0° 172° (S) 3,188 7.4 -12.5°
